This is the latest recevied weather packets stored in our database for station/object EW3591. If no packets are shown the sender has not sent any weather packets the latest 1 day(s).
| Time | Temp. | Humidity | Pressure | Rain* | Wind** | Luminosity | Snow |
|---|---|---|---|---|---|---|---|
| 1777984723 | 16.11° C | 78% | 1000.6 hPa | 0 mm | 2.24 m/s, 196° | - | - |
| 1777984603 | 16.11° C | 78% | 1000.7 hPa | 0 mm | 3.13 m/s, 188° | - | - |
| 1777984483 | 16.11° C | 78% | 1000.7 hPa | 0 mm | 3.58 m/s, 206° | - | - |
| 1777984362 | 16.11° C | 78% | 1000.7 hPa | 0 mm | 3.58 m/s, 213° | - | - |
| 1777984242 | 16.11° C | 78% | 1000.6 hPa | 0 mm | 3.13 m/s, 205° | - | - |
| 1777984122 | 16.11° C | 78% | 1000.7 hPa | 0 mm | 2.68 m/s, 215° | - | - |
| 1777984001 | 16.11° C | 78% | 1000.7 hPa | 0 mm | 3.13 m/s, 215° | - | - |
| 1777983881 | 16.11° C | 78% | 1000.7 hPa | 0 mm | 2.68 m/s, 227° | - | - |
| 1777983761 | 16.11° C | 78% | 1000.7 hPa | 0 mm | 2.68 m/s, 214° | - | - |
| 1777983641 | 16.11° C | 78% | 1000.7 hPa | 0 mm | 2.68 m/s, 224° | - | - |
| 1777983520 | 16.11° C | 78% | 1000.6 hPa | 0 mm | 3.58 m/s, 214° | - | - |
| 1777983400 | 16.11° C | 78% | 1000.6 hPa | 0 mm | 3.58 m/s, 211° | - | - |
| 1777983280 | 16.11° C | 78% | 1000.6 hPa | 0 mm | 3.13 m/s, 187° | - | - |
| 1777983159 | 16.11° C | 78% | 1000.6 hPa | 0 mm | 3.13 m/s, 194° | - | - |
| 1777983039 | 16.11° C | 78% | 1000.6 hPa | 0 mm | 3.58 m/s, 201° | - | - |
| 1777982919 | 16.11° C | 78% | 1000.6 hPa | 0 mm | 3.58 m/s, 210° | - | - |
| 1777982799 | 16.11° C | 79% | 1000.5 hPa | 0 mm | 3.58 m/s, 194° | - | - |
| 1777982678 | 15.56° C | 79% | 1000.7 hPa | 0 mm | 2.68 m/s, 205° | - | - |
| 1777982558 | 15.56° C | 79% | 1000.5 hPa | 0 mm | 2.68 m/s, 228° | - | - |
| 1777982438 | 15.56° C | 78% | 1000.6 hPa | 0 mm | 3.58 m/s, 223° | - | - |
| 1777982317 | 15.56° C | 78% | 1000.5 hPa | 0 mm | 3.13 m/s, 232° | - | - |
| 1777982197 | 16.11° C | 78% | 1000.5 hPa | 0 mm | 2.24 m/s, 213° | - | - |
| 1777982077 | 16.11° C | 78% | 1000.6 hPa | 0 mm | 2.24 m/s, 188° | - | - |
| 1777981956 | 16.11° C | 78% | 1000.6 hPa | 0 mm | 2.68 m/s, 214° | - | - |
| 1777981836 | 16.11° C | 78% | 1000.6 hPa | 0 mm | 2.68 m/s, 207° | - | - |
* Rain latest hour (hover to see other rain measurements)
** Current wind speed in m/s (hover to see current wind gust speed)